Time,TemperatureF,DewpointF,PressureIn,WindDirection,WindDirectionDegrees,WindSpeedMPH,WindSpeedGustMPH,Humidity,HourlyPrecipIn,Conditions,Clouds,dailyrainin,SolarRadiationWatts/m^2,SoftwareType,DateUTC
2014-01-10 00:04:00,33.5,14.9,29.97,WNW,299,0.0,0.0,46,0.00,,BKN200,0.00,0.00,VWS V14.01,2014-01-10 07:04:00,
2014-01-10 00:09:00,33.5,14.9,29.97,WNW,299,0.0,0.0,46,0.00,,BKN200,0.00,0.00,VWS V14.01,2014-01-10 07:09:00,
2014-01-10 00:14:00,33.4,14.9,29.97,WNW,300,0.0,2.0,46,0.00,,BKN200,0.00,0.00,VWS V14.01,2014-01-10 07:14:00,
2014-01-10 00:19:00,33.4,14.9,29.97,WNW,300,0.0,0.0,46,0.00,,BKN200,0.00,0.00,VWS V14.01,2014-01-10 07:19:00,
2014-01-10 00:24:00,33.4,14.9,29.97,WNW,299,0.0,0.0,46,0.00,,BKN200,0.00,0.00,VWS V14.01,2014-01-10 07:24:00,
2014-01-10 00:30:00,33.4,14.9,29.96,WNW,299,0.0,1.0,46,0.00,,BKN200,0.00,0.00,VWS V14.01,2014-01-10 07:30:00,
2014-01-10 00:35:00,33.4,14.4,29.96,WNW,299,1.0,2.0,45,0.00,,BKN200,0.00,0.00,VWS V14.01,2014-01-10 07:35:00,
2014-01-10 00:40:00,33.4,14.4,29.96,WNW,299,0.0,0.0,45,0.00,,BKN200,0.00,0.00,VWS V14.01,2014-01-10 07:40:00,
2014-01-10 00:45:00,33.5,14.4,29.96,SW,229,1.0,4.0,45,0.00,,BKN200,0.00,0.00,VWS V14.01,2014-01-10 07:45:00,
2014-01-10 00:50:00,33.7,14.6,29.96,SW,229,0.0,0.0,45,0.00,,BKN200,0.00,0.00,VWS V14.01,2014-01-10 07:50:00,
2014-01-10 00:55:00,33.8,14.2,29.96,SW,229,0.0,0.0,44,0.00,,BKN200,0.00,0.00,VWS V14.01,2014-01-10 07:55:00,
2014-01-10 01:00:00,33.7,14.1,29.96,SW,229,0.0,0.0,44,0.00,,BKN200,0.00,0.00,VWS V14.01,2014-01-10 08:00:00,
2014-01-10 01:05:00,33.7,14.1,29.95,SW,229,0.0,2.0,44,0.00,,BKN200,0.00,0.00,VWS V14.01,2014-01-10 08:05:00,
2014-01-10 01:10:00,33.7,14.1,29.95,SW,229,0.0,1.0,44,0.00,,BKN200,0.00,0.00,VWS V14.01,2014-01-10 08:10:00,
2014-01-10 01:15:00,33.5,14.4,29.95,SW,229,0.0,0.0,45,0.00,,BKN200,0.00,0.00,VWS V14.01,2014-01-10 08:15:00,
2014-01-10 01:20:00,33.4,13.9,29.96,SW,229,0.0,0.0,44,0.00,,BKN200,0.00,0.00,VWS V14.01,2014-01-10 08:20:00,
2014-01-10 01:26:00,33.3,14.3,29.96,SW,229,2.0,2.0,45,0.00,,BKN200,0.00,0.00,VWS V14.01,2014-01-10 08:26:00,
2014-01-10 01:31:00,33.1,14.6,29.96,SW,227,0.0,2.0,46,0.00,,BKN200,0.00,0.00,VWS V14.01,2014-01-10 08:31:00,
2014-01-10 01:36:00,32.9,14.4,29.96,SW,228,0.0,0.0,46,0.00,,BKN200,0.00,0.00,VWS V14.01,2014-01-10 08:36:00,
2014-01-10 01:41:00,32.8,14.3,29.96,SW,228,0.0,0.0,46,0.00,,BKN200,0.00,0.00,VWS V14.01,2014-01-10 08:41:00,
2014-01-10 01:46:00,32.8,14.3,29.96,SW,228,0.0,0.0,46,0.00,,BKN200,0.00,0.00,VWS V14.01,2014-01-10 08:46:00,
2014-01-10 01:51:00,32.6,14.1,29.96,SW,228,0.0,0.0,46,0.00,,BKN200,0.00,0.00,VWS V14.01,2014-01-10 08:51:00,
2014-01-10 01:56:00,32.5,14.0,29.96,SW,228,0.0,0.0,46,0.00,,BKN200,0.00,0.00,VWS V14.01,2014-01-10 08:56:00,
2014-01-10 02:01:00,32.3,13.9,29.97,SW,228,0.0,0.0,46,0.00,,CLR,0.00,0.00,VWS V14.01,2014-01-10 09:01:00,
2014-01-10 02:06:00,32.2,13.8,29.97,SW,228,0.0,0.0,46,0.00,,CLR,0.00,0.00,VWS V14.01,2014-01-10 09:06:00,
2014-01-10 02:11:00,31.9,13.5,29.97,SW,228,0.0,0.0,46,0.00,,CLR,0.00,0.00,VWS V14.01,2014-01-10 09:11:00,
2014-01-10 02:16:00,31.8,13.9,29.97,SW,228,0.0,0.0,47,0.00,,CLR,0.00,0.00,VWS V14.01,2014-01-10 09:16:00,
2014-01-10 02:21:00,31.6,13.7,29.96,SW,228,2.0,2.0,47,0.00,,CLR,0.00,0.00,VWS V14.01,2014-01-10 09:21:00,
2014-01-10 02:26:00,31.4,14.0,29.97,SW,228,0.0,0.0,48,0.00,,CLR,0.00,0.00,VWS V14.01,2014-01-10 09:26:00,
2014-01-10 02:31:00,31.3,13.4,29.97,SW,228,0.0,0.0,47,0.00,,CLR,0.00,0.00,VWS V14.01,2014-01-10 09:31:00,
2014-01-10 02:36:00,31.2,13.8,29.96,SW,228,0.0,0.0,48,0.00,,CLR,0.00,0.00,VWS V14.01,2014-01-10 09:36:00,
2014-01-10 02:41:00,31.1,13.7,29.96,SW,228,0.0,0.0,48,0.00,,CLR,0.00,0.00,VWS V14.01,2014-01-10 09:41:00,
2014-01-10 02:46:00,31.0,13.6,29.96,SW,228,0.0,2.0,48,0.00,,CLR,0.00,0.00,VWS V14.01,2014-01-10 09:46:00,
2014-01-10 02:51:00,30.9,13.5,29.96,SW,228,0.0,0.0,48,0.00,,CLR,0.00,0.00,VWS V14.01,2014-01-10 09:51:00,
2014-01-10 02:56:00,30.8,13.9,29.96,SW,228,0.0,0.0,49,0.00,,CLR,0.00,0.00,VWS V14.01,2014-01-10 09:56:00,
2014-01-10 03:01:00,30.6,13.7,29.96,SW,228,0.0,0.0,49,0.00,,CLR,0.00,0.00,VWS V14.01,2014-01-10 10:01:00,
2014-01-10 03:06:00,30.6,13.3,29.96,SW,228,0.0,0.0,48,0.00,,CLR,0.00,0.00,VWS V14.01,2014-01-10 10:06:00,
2014-01-10 03:12:00,30.3,13.9,29.96,SW,228,0.0,0.0,50,0.00,,CLR,0.00,0.00,VWS V14.01,2014-01-10 10:12:00,
2014-01-10 03:17:00,30.2,13.4,29.97,SW,228,0.0,0.0,49,0.00,,CLR,0.00,0.00,VWS V14.01,2014-01-10 10:17:00,
2014-01-10 03:22:00,29.9,13.5,29.97,SW,228,0.0,0.0,50,0.00,,CLR,0.00,0.00,VWS V14.01,2014-01-10 10:22:00,
2014-01-10 03:27:00,29.7,13.4,29.97,SW,228,0.0,2.0,50,0.00,,CLR,0.00,0.00,VWS V14.01,2014-01-10 10:27:00,
2014-01-10 03:32:00,29.4,13.1,29.97,SW,228,1.0,3.0,50,0.00,,CLR,0.00,0.00,VWS V14.01,2014-01-10 10:32:00,
2014-01-10 03:37:00,29.2,13.3,29.97,SW,228,0.0,3.0,51,0.00,,CLR,0.00,0.00,VWS V14.01,2014-01-10 10:37:00,
2014-01-10 03:42:00,29.0,13.1,29.97,SW,228,0.0,0.0,51,0.00,,CLR,0.00,0.00,VWS V14.01,2014-01-10 10:42:00,
2014-01-10 03:47:00,28.9,13.1,29.97,SW,228,0.0,0.0,51,0.00,,CLR,0.00,0.00,VWS V14.01,2014-01-10 10:47:00,
2014-01-10 03:52:00,28.8,13.4,29.97,SW,228,0.0,0.0,52,0.00,,CLR,0.00,0.00,VWS V14.01,2014-01-10 10:52:00,
2014-01-10 03:57:00,28.7,13.3,29.97,SW,228,0.0,0.0,52,0.00,,CLR,0.00,0.00,VWS V14.01,2014-01-10 10:57:00,
2014-01-10 04:02:00,28.5,13.1,29.97,SW,228,0.0,2.0,52,0.00,,CLR,0.00,0.00,VWS V14.01,2014-01-10 11:02:00,
2014-01-10 04:07:00,28.4,13.0,29.97,SW,228,1.0,1.0,52,0.00,,CLR,0.00,0.00,VWS V14.01,2014-01-10 11:07:00,
2014-01-10 04:12:00,28.2,13.3,29.97,SW,228,0.0,1.0,53,0.00,,CLR,0.00,0.00,VWS V14.01,2014-01-10 11:12:00,
2014-01-10 04:17:00,28.0,13.1,29.97,SW,228,0.0,0.0,53,0.00,,CLR,0.00,0.00,VWS V14.01,2014-01-10 11:17:00,
2014-01-10 04:22:00,27.8,12.9,29.97,SW,228,0.0,1.0,53,0.00,,CLR,0.00,0.00,VWS V14.01,2014-01-10 11:22:00,
2014-01-10 04:27:00,27.6,12.7,29.98,SW,228,1.0,2.0,53,0.00,,CLR,0.00,0.00,VWS V14.01,2014-01-10 11:27:00,
2014-01-10 04:32:00,27.5,13.5,29.98,SW,229,0.0,0.0,55,0.00,,CLR,0.00,0.00,VWS V14.01,2014-01-10 11:32:00,
2014-01-10 04:37:00,27.4,13.4,29.98,SW,229,0.0,0.0,55,0.00,,CLR,0.00,0.00,VWS V14.01,2014-01-10 11:37:00,
2014-01-10 04:42:00,27.2,13.2,29.98,SW,229,0.0,0.0,55,0.00,,CLR,0.00,0.00,VWS V14.01,2014-01-10 11:42:00,
2014-01-10 04:47:00,27.1,13.5,29.98,SW,229,0.0,0.0,56,0.00,,CLR,0.00,0.00,VWS V14.01,2014-01-10 11:47:00,
2014-01-10 04:52:00,27.0,13.4,29.98,SW,229,0.0,0.0,56,0.00,,CLR,0.00,0.00,VWS V14.01,2014-01-10 11:52:00,
2014-01-10 04:57:00,26.9,13.3,29.97,SW,229,0.0,0.0,56,0.00,,CLR,0.00,0.00,VWS V14.01,2014-01-10 11:57:00,
2014-01-10 05:02:00,26.8,13.2,29.98,SW,229,0.0,1.0,56,0.00,,CLR,0.00,0.00,VWS V14.01,2014-01-10 12:02:00,
2014-01-10 05:07:00,26.7,13.1,29.98,SW,229,3.0,3.0,56,0.00,,CLR,0.00,0.00,VWS V14.01,2014-01-10 12:07:00,
2014-01-10 05:12:00,26.6,13.4,29.98,West,271,1.0,3.0,57,0.00,,CLR,0.00,0.00,VWS V14.01,2014-01-10 12:12:00,
2014-01-10 05:17:00,26.5,12.9,29.98,West,271,0.0,2.0,56,0.00,,CLR,0.00,0.00,VWS V14.01,2014-01-10 12:17:00,
2014-01-10 05:22:00,26.5,13.3,29.99,West,271,0.0,1.0,57,0.00,,CLR,0.00,0.00,VWS V14.01,2014-01-10 12:22:00,
2014-01-10 05:27:00,26.5,13.7,29.98,West,271,0.0,0.0,58,0.00,,CLR,0.00,0.00,VWS V14.01,2014-01-10 12:27:00,
2014-01-10 05:32:00,26.6,13.8,29.98,West,271,0.0,1.0,58,0.00,,CLR,0.00,0.00,VWS V14.01,2014-01-10 12:32:00,
2014-01-10 05:37:00,26.6,13.8,29.98,West,271,0.0,0.0,58,0.00,,CLR,0.00,0.00,VWS V14.01,2014-01-10 12:37:00,
2014-01-10 05:42:00,26.6,13.8,29.98,West,271,0.0,3.0,58,0.00,,CLR,0.00,0.00,VWS V14.01,2014-01-10 12:42:00,
2014-01-10 05:47:00,26.6,13.4,29.98,West,271,0.0,0.0,57,0.00,,CLR,0.00,0.00,VWS V14.01,2014-01-10 12:47:00,
2014-01-10 05:52:00,26.6,13.4,29.98,West,271,0.0,0.0,57,0.00,,CLR,0.00,0.00,VWS V14.01,2014-01-10 12:52:00,
2014-01-10 05:57:00,26.6,13.4,29.99,West,271,0.0,0.0,57,0.00,,CLR,0.00,0.00,VWS V14.01,2014-01-10 12:57:00,
2014-01-10 06:02:00,26.5,13.3,29.99,West,271,0.0,0.0,57,0.00,,CLR,0.00,0.00,VWS V14.01,2014-01-10 13:02:00,
2014-01-10 06:08:00,26.4,13.6,29.99,West,271,0.0,0.0,58,0.00,,CLR,0.00,0.00,VWS V14.01,2014-01-10 13:08:00,
2014-01-10 06:13:00,26.4,14.0,29.99,West,271,0.0,1.0,59,0.00,,CLR,0.00,0.00,VWS V14.01,2014-01-10 13:13:00,
2014-01-10 06:18:00,26.4,14.0,29.99,West,271,0.0,0.0,59,0.00,,CLR,0.00,0.00,VWS V14.01,2014-01-10 13:18:00,
2014-01-10 06:23:00,26.5,14.1,29.99,West,271,0.0,0.0,59,0.00,,CLR,0.00,0.00,VWS V14.01,2014-01-10 13:23:00,
2014-01-10 06:28:00,26.5,14.1,29.99,West,271,0.0,3.0,59,0.00,,CLR,0.00,0.00,VWS V14.01,2014-01-10 13:28:00,
2014-01-10 06:33:00,26.5,13.7,29.99,West,271,0.0,0.0,58,0.00,,CLR,0.00,0.00,VWS V14.01,2014-01-10 13:33:00,
2014-01-10 06:38:00,26.5,14.1,30.00,ENE,61,3.0,5.0,59,0.00,,CLR,0.00,0.00,VWS V14.01,2014-01-10 13:38:00,
2014-01-10 06:43:00,26.4,14.0,30.00,East,86,0.0,5.0,59,0.00,,CLR,0.00,0.00,VWS V14.01,2014-01-10 13:43:00,
2014-01-10 06:48:00,26.3,13.9,30.00,East,87,0.0,1.0,59,0.00,,CLR,0.00,0.00,VWS V14.01,2014-01-10 13:48:00,
2014-01-10 06:53:00,26.3,13.9,30.00,NE,41,0.0,2.0,59,0.00,,CLR,0.00,0.00,VWS V14.01,2014-01-10 13:53:00,
2014-01-10 06:58:00,26.1,13.8,29.99,NE,41,0.0,1.0,59,0.00,,CLR,0.00,0.00,VWS V14.01,2014-01-10 13:58:00,
2014-01-10 07:03:00,26.0,14.0,30.00,NE,40,0.0,0.0,60,0.00,,CLR,0.00,0.00,VWS V14.01,2014-01-10 14:03:00,
2014-01-10 07:08:00,25.9,13.6,30.00,NE,40,0.0,0.0,59,0.00,,CLR,0.00,0.00,VWS V14.01,2014-01-10 14:08:00,
2014-01-10 07:13:00,25.7,14.1,30.00,ENE,68,0.0,2.0,61,0.00,,CLR,0.00,0.00,VWS V14.01,2014-01-10 14:13:00,
2014-01-10 07:18:00,25.6,14.0,30.01,ENE,68,0.0,0.0,61,0.00,,CLR,0.00,5.00,VWS V14.01,2014-01-10 14:18:00,
2014-01-10 07:23:00,25.8,14.6,30.01,ENE,71,0.0,2.0,62,0.00,,CLR,0.00,7.00,VWS V14.01,2014-01-10 14:23:00,
2014-01-10 07:28:00,25.8,14.2,30.02,ENE,71,0.0,0.0,61,0.00,,CLR,0.00,11.00,VWS V14.01,2014-01-10 14:28:00,
2014-01-10 07:34:00,25.9,14.7,30.02,ENE,71,0.0,1.0,62,0.00,,CLR,0.00,11.00,VWS V14.01,2014-01-10 14:34:00,
2014-01-10 07:39:00,26.2,15.0,30.02,NNE,24,2.0,4.0,62,0.00,,CLR,0.00,14.00,VWS V14.01,2014-01-10 14:39:00,
2014-01-10 07:44:00,26.6,15.4,30.02,NE,34,1.0,2.0,62,0.00,,CLR,0.00,18.00,VWS V14.01,2014-01-10 14:44:00,
2014-01-10 07:49:00,27.5,16.2,30.02,NNE,14,2.0,7.0,62,0.00,,CLR,0.00,23.00,VWS V14.01,2014-01-10 14:49:00,
2014-01-10 07:54:00,28.7,17.0,30.02,NNW,327,4.0,7.0,61,0.00,,CLR,0.00,18.00,VWS V14.01,2014-01-10 14:54:00,
2014-01-10 07:59:00,29.6,17.0,30.02,WNW,295,3.0,10.0,59,0.00,,CLR,0.00,18.00,VWS V14.01,2014-01-10 14:59:00,
2014-01-10 08:04:00,31.1,18.1,30.02,NW,307,7.0,12.0,58,0.00,,CLR,0.00,18.00,VWS V14.01,2014-01-10 15:04:00,
2014-01-10 08:09:00,33.2,18.8,30.02,NW,310,3.0,5.0,55,0.00,,CLR,0.00,19.00,VWS V14.01,2014-01-10 15:09:00,
2014-01-10 08:14:00,34.4,18.6,30.02,WNW,289,6.0,12.0,52,0.00,,CLR,0.00,19.00,VWS V14.01,2014-01-10 15:14:00,
2014-01-10 08:19:00,35.0,18.7,30.02,WNW,294,2.0,10.0,51,0.00,,CLR,0.00,19.00,VWS V14.01,2014-01-10 15:19:00,
2014-01-10 08:24:00,35.4,19.1,30.02,NW,319,3.0,10.0,51,0.00,,CLR,0.00,21.00,VWS V14.01,2014-01-10 15:24:00,
2014-01-10 08:29:00,35.6,18.8,30.03,NW,304,1.0,10.0,50,0.00,,CLR,0.00,21.00,VWS V14.01,2014-01-10 15:29:00,
2014-01-10 08:34:00,35.8,19.0,30.03,NW,317,2.0,2.0,50,0.00,,CLR,0.00,23.00,VWS V14.01,2014-01-10 15:34:00,
2014-01-10 08:39:00,35.8,19.0,30.04,NW,321,0.0,0.0,50,0.00,,CLR,0.00,26.00,VWS V14.01,2014-01-10 15:39:00,
2014-01-10 08:44:00,35.6,17.9,30.04,ESE,116,1.0,1.0,48,0.00,,CLR,0.00,25.00,VWS V14.01,2014-01-10 15:44:00,
2014-01-10 08:49:00,34.7,17.0,30.03,SSE,164,1.0,3.0,48,0.00,,CLR,0.00,26.00,VWS V14.01,2014-01-10 15:49:00,
2014-01-10 08:54:00,33.9,16.8,30.04,SSE,165,1.0,3.0,49,0.00,,CLR,0.00,46.00,VWS V14.01,2014-01-10 15:54:00,
2014-01-10 08:59:00,33.4,16.8,30.04,SSE,165,1.0,1.0,50,0.00,,CLR,0.00,49.00,VWS V14.01,2014-01-10 15:59:00,
2014-01-10 09:04:00,33.2,16.6,30.04,SSE,165,1.0,2.0,50,0.00,,FEW060,0.00,69.00,VWS V14.01,2014-01-10 16:04:00,
2014-01-10 09:09:00,33.2,16.6,30.04,SSE,165,1.0,2.0,50,0.00,,FEW060,0.00,69.00,VWS V14.01,2014-01-10 16:09:00,
2014-01-10 09:14:00,33.4,17.2,30.04,SSE,165,0.0,0.0,51,0.00,,FEW060,0.00,51.00,VWS V14.01,2014-01-10 16:14:00,
2014-01-10 09:19:00,33.8,17.6,30.04,SSE,165,0.0,0.0,51,0.00,,FEW060,0.00,67.00,VWS V14.01,2014-01-10 16:19:00,
2014-01-10 09:24:00,34.0,17.8,30.04,SSE,165,0.0,0.0,51,0.00,,FEW060,0.00,46.00,VWS V14.01,2014-01-10 16:24:00,
2014-01-10 09:29:00,34.4,18.2,30.05,SSE,165,1.0,2.0,51,0.00,,FEW060,0.00,44.00,VWS V14.01,2014-01-10 16:29:00,
2014-01-10 09:35:00,35.0,18.2,30.04,SSE,165,0.0,0.0,50,0.00,,FEW060,0.00,111.00,VWS V14.01,2014-01-10 16:35:00,
2014-01-10 09:40:00,35.8,18.5,30.04,SSE,165,0.0,0.0,49,0.00,,FEW060,0.00,37.00,VWS V14.01,2014-01-10 16:40:00,
2014-01-10 09:45:00,36.5,18.7,30.04,SSE,165,1.0,2.0,48,0.00,,FEW060,0.00,33.00,VWS V14.01,2014-01-10 16:45:00,
2014-01-10 09:50:00,37.0,19.1,30.04,SSE,165,0.0,0.0,48,0.00,,FEW060,0.00,35.00,VWS V14.01,2014-01-10 16:50:00,
2014-01-10 09:55:00,37.5,19.1,30.04,SSE,165,0.0,0.0,47,0.00,,FEW060,0.00,35.00,VWS V14.01,2014-01-10 16:55:00,
2014-01-10 10:00:00,38.0,19.6,30.04,SSE,163,1.0,2.0,47,0.00,,FEW060,0.00,46.00,VWS V14.01,2014-01-10 17:00:00,
2014-01-10 10:05:00,38.6,19.6,30.04,SSE,163,0.0,2.0,46,0.00,,FEW060,0.00,142.00,VWS V14.01,2014-01-10 17:05:00,
2014-01-10 10:10:00,39.1,19.6,30.04,ESE,103,0.0,0.0,45,0.00,,FEW060,0.00,179.00,VWS V14.01,2014-01-10 17:10:00,
2014-01-10 10:15:00,40.0,19.3,30.04,South,171,2.0,3.0,43,0.00,,FEW060,0.00,464.00,VWS V14.01,2014-01-10 17:15:00,
2014-01-10 10:20:00,41.3,20.0,30.04,SSW,194,0.0,0.0,42,0.00,,FEW060,0.00,473.00,VWS V14.01,2014-01-10 17:20:00,
2014-01-10 10:25:00,42.8,20.2,30.04,SSW,195,0.0,0.0,40,0.00,,FEW060,0.00,485.00,VWS V14.01,2014-01-10 17:25:00,
2014-01-10 10:30:00,44.0,20.0,30.04,SSW,195,3.0,4.0,38,0.00,,FEW060,0.00,494.00,VWS V14.01,2014-01-10 17:30:00,
2014-01-10 10:35:00,44.8,20.1,30.03,South,191,1.0,4.0,37,0.00,,FEW060,0.00,501.00,VWS V14.01,2014-01-10 17:35:00,
2014-01-10 10:40:00,45.4,20.0,30.03,South,191,0.0,0.0,36,0.00,,FEW060,0.00,508.00,VWS V14.01,2014-01-10 17:40:00,
2014-01-10 10:45:00,46.0,19.9,30.02,South,178,2.0,3.0,35,0.00,,FEW060,0.00,515.00,VWS V14.01,2014-01-10 17:45:00,
2014-01-10 10:50:00,46.5,20.3,30.03,South,176,0.0,1.0,35,0.00,,FEW060,0.00,517.00,VWS V14.01,2014-01-10 17:50:00,
2014-01-10 10:55:00,46.9,20.0,30.03,SSE,155,1.0,2.0,34,0.00,,FEW060,0.00,527.00,VWS V14.01,2014-01-10 17:55:00,
2014-01-10 11:00:00,47.4,20.5,30.03,SE,144,2.0,2.0,34,0.00,,FEW060,0.00,533.00,VWS V14.01,2014-01-10 18:00:00,
2014-01-10 11:05:00,47.8,19.4,30.02,South,173,0.0,6.0,32,0.00,,FEW060,0.00,541.00,VWS V14.01,2014-01-10 18:05:00,
2014-01-10 11:10:00,48.0,19.6,30.02,SSE,149,2.0,3.0,32,0.00,,FEW060,0.00,547.00,VWS V14.01,2014-01-10 18:10:00,
2014-01-10 11:15:00,48.2,19.7,30.03,SSE,148,0.0,2.0,32,0.00,,FEW060,0.00,548.00,VWS V14.01,2014-01-10 18:15:00,
2014-01-10 11:20:00,48.7,20.2,30.02,SSE,167,3.0,3.0,32,0.00,,FEW060,0.00,554.00,VWS V14.01,2014-01-10 18:20:00,
2014-01-10 11:25:00,49.2,19.9,30.02,South,191,0.0,0.0,31,0.00,,FEW060,0.00,559.00,VWS V14.01,2014-01-10 18:25:00,
2014-01-10 11:30:00,49.3,20.0,30.01,ESE,107,0.0,4.0,31,0.00,,FEW060,0.00,564.00,VWS V14.01,2014-01-10 18:30:00,
2014-01-10 11:35:00,49.7,19.5,30.01,East,92,0.0,5.0,30,0.00,,FEW060,0.00,568.00,VWS V14.01,2014-01-10 18:35:00,
2014-01-10 11:40:00,50.2,20.0,30.00,SE,140,0.0,3.0,30,0.00,,FEW060,0.00,571.00,VWS V14.01,2014-01-10 18:40:00,
2014-01-10 11:46:00,50.2,20.0,30.00,SE,140,0.0,2.0,30,0.00,,FEW060,0.00,573.00,VWS V14.01,2014-01-10 18:46:00,
2014-01-10 11:51:00,50.7,20.4,30.00,SE,140,0.0,0.0,30,0.00,,FEW060,0.00,571.00,VWS V14.01,2014-01-10 18:51:00,
2014-01-10 11:56:00,51.1,20.8,30.00,SSW,195,3.0,3.0,30,0.00,,FEW060,0.00,577.00,VWS V14.01,2014-01-10 18:56:00,
2014-01-10 12:01:00,51.5,19.5,29.99,SSW,196,0.0,1.0,28,0.00,,FEW060,0.00,578.00,VWS V14.01,2014-01-10 19:01:00,
2014-01-10 12:06:00,52.1,20.0,29.99,WSW,240,0.0,6.0,28,0.00,,FEW070,0.00,578.00,VWS V14.01,2014-01-10 19:06:00,
2014-01-10 12:11:00,52.5,20.4,29.98,West,259,2.0,8.0,28,0.00,,FEW070,0.00,578.00,VWS V14.01,2014-01-10 19:11:00,
2014-01-10 12:16:00,53.6,20.5,29.98,WSW,257,4.0,9.0,27,0.00,,FEW070,0.00,577.00,VWS V14.01,2014-01-10 19:16:00,
2014-01-10 12:21:00,54.3,21.0,29.98,West,276,6.0,9.0,27,0.00,,FEW070,0.00,577.00,VWS V14.01,2014-01-10 19:21:00,
2014-01-10 12:26:00,54.6,20.4,29.97,WSW,244,2.0,7.0,26,0.00,,FEW070,0.00,577.00,VWS V14.01,2014-01-10 19:26:00,
2014-01-10 12:31:00,54.9,20.7,29.97,West,261,7.0,8.0,26,0.00,,FEW070,0.00,575.00,VWS V14.01,2014-01-10 19:31:00,
2014-01-10 12:36:00,54.9,20.7,29.97,WNW,286,2.0,5.0,26,0.00,,FEW070,0.00,571.00,VWS V14.01,2014-01-10 19:36:00,
2014-01-10 12:41:00,55.2,20.0,29.97,West,271,2.0,6.0,25,0.00,,FEW070,0.00,566.00,VWS V14.01,2014-01-10 19:41:00,
2014-01-10 12:46:00,55.8,20.5,29.97,WSW,257,2.0,5.0,25,0.00,,FEW070,0.00,564.00,VWS V14.01,2014-01-10 19:46:00,
2014-01-10 12:51:00,56.3,20.0,29.97,NW,309,5.0,9.0,24,0.00,,FEW070,0.00,561.00,VWS V14.01,2014-01-10 19:51:00,
2014-01-10 12:56:00,56.6,20.2,29.97,NW,315,6.0,8.0,24,0.00,,FEW070,0.00,557.00,VWS V14.01,2014-01-10 19:56:00,
2014-01-10 13:01:00,56.8,20.4,29.96,NW,316,0.0,5.0,24,0.00,,FEW070,0.00,552.00,VWS V14.01,2014-01-10 20:01:00,
2014-01-10 13:06:00,56.9,20.5,29.96,NW,315,0.0,5.0,24,0.00,,FEW070,0.00,550.00,VWS V14.01,2014-01-10 20:06:00,
2014-01-10 13:11:00,56.9,20.5,29.95,NW,313,3.0,6.0,24,0.00,,FEW070,0.00,541.00,VWS V14.01,2014-01-10 20:11:00,
2014-01-10 13:17:00,57.1,19.7,29.95,NW,313,1.0,1.0,23,0.00,,FEW070,0.00,538.00,VWS V14.01,2014-01-10 20:17:00,
2014-01-10 13:22:00,58.2,20.6,29.95,NW,306,3.0,3.0,23,0.00,,FEW070,0.00,527.00,VWS V14.01,2014-01-10 20:22:00,
2014-01-10 13:27:00,58.3,19.6,29.95,North,355,0.0,3.0,22,0.00,,FEW070,0.00,524.00,VWS V14.01,2014-01-10 20:27:00,
2014-01-10 13:32:00,58.7,21.0,29.95,NNW,328,6.0,6.0,23,0.00,,FEW070,0.00,517.00,VWS V14.01,2014-01-10 20:32:00,
2014-01-10 13:37:00,58.8,20.1,29.94,WSW,252,3.0,8.0,22,0.00,,FEW070,0.00,512.00,VWS V14.01,2014-01-10 20:37:00,
2014-01-10 13:42:00,59.0,20.2,29.94,WSW,258,8.0,10.0,22,0.00,,FEW070,0.00,503.00,VWS V14.01,2014-01-10 20:42:00,
2014-01-10 13:47:00,59.6,19.6,29.95,WNW,296,4.0,13.0,21,0.00,,FEW070,0.00,494.00,VWS V14.01,2014-01-10 20:47:00,
2014-01-10 13:52:00,59.9,17.6,29.95,WNW,294,6.0,12.0,19,0.00,,FEW070,0.00,487.00,VWS V14.01,2014-01-10 20:52:00,
2014-01-10 13:57:00,60.0,17.6,29.94,West,263,4.0,9.0,19,0.00,,FEW070,0.00,476.00,VWS V14.01,2014-01-10 20:57:00,
2014-01-10 14:02:00,60.1,16.5,29.94,WNW,300,12.0,20.0,18,0.00,,FEW100,0.00,466.00,VWS V14.01,2014-01-10 21:02:00,
2014-01-10 14:07:00,59.8,14.9,29.94,NW,314,14.0,23.0,17,0.00,,FEW100,0.00,454.00,VWS V14.01,2014-01-10 21:07:00,
2014-01-10 14:12:00,59.5,16.0,29.93,WNW,283,5.0,14.0,18,0.00,,FEW100,0.00,448.00,VWS V14.01,2014-01-10 21:12:00,
2014-01-10 14:17:00,59.9,16.3,29.94,NNW,344,10.0,15.0,18,0.00,,FEW100,0.00,436.00,VWS V14.01,2014-01-10 21:17:00,
2014-01-10 14:22:00,60.2,16.6,29.94,NW,307,16.0,21.0,18,0.00,,FEW100,0.00,424.00,VWS V14.01,2014-01-10 21:22:00,
2014-01-10 14:27:00,60.0,16.4,29.93,West,271,5.0,17.0,18,0.00,,FEW100,0.00,411.00,VWS V14.01,2014-01-10 21:27:00,
2014-01-10 14:32:00,60.1,16.5,29.93,WNW,291,16.0,22.0,18,0.00,,FEW100,0.00,399.00,VWS V14.01,2014-01-10 21:32:00,
2014-01-10 14:38:00,60.1,16.5,29.93,West,271,9.0,20.0,18,0.00,,FEW100,0.00,390.00,VWS V14.01,2014-01-10 21:38:00,
2014-01-10 14:43:00,59.5,16.0,29.93,West,273,10.0,18.0,18,0.00,,FEW100,0.00,376.00,VWS V14.01,2014-01-10 21:43:00,
2014-01-10 14:48:00,59.2,15.7,29.93,West,280,16.0,23.0,18,0.00,,FEW100,0.00,364.00,VWS V14.01,2014-01-10 21:48:00,
2014-01-10 14:53:00,59.3,15.8,29.93,NW,306,13.0,21.0,18,0.00,,FEW100,0.00,352.00,VWS V14.01,2014-01-10 21:53:00,
2014-01-10 14:58:00,59.0,15.6,29.92,West,279,12.0,19.0,18,0.00,,FEW100,0.00,339.00,VWS V14.01,2014-01-10 21:58:00,
2014-01-10 15:03:00,59.2,15.7,29.93,West,266,14.0,20.0,18,0.00,,FEW070,0.00,325.00,VWS V14.01,2014-01-10 22:03:00,
2014-01-10 15:08:00,59.1,15.7,29.93,WNW,298,15.0,20.0,18,0.00,,FEW070,0.00,325.00,VWS V14.01,2014-01-10 22:08:00,
2014-01-10 15:13:00,59.0,15.6,29.93,NW,309,14.0,24.0,18,0.00,,FEW070,0.00,297.00,VWS V14.01,2014-01-10 22:13:00,
2014-01-10 15:18:00,58.9,15.5,29.92,NW,305,10.0,21.0,18,0.00,,FEW070,0.00,285.00,VWS V14.01,2014-01-10 22:18:00,
2014-01-10 15:23:00,58.7,15.3,29.93,NW,318,19.0,25.0,18,0.00,,FEW070,0.00,269.00,VWS V14.01,2014-01-10 22:23:00,
2014-01-10 15:28:00,58.5,15.2,29.93,WNW,289,20.0,25.0,18,0.00,,FEW070,0.00,257.00,VWS V14.01,2014-01-10 22:28:00,
2014-01-10 15:33:00,58.3,15.0,29.93,West,273,20.0,24.0,18,0.00,,FEW070,0.00,243.00,VWS V14.01,2014-01-10 22:33:00,
2014-01-10 15:38:00,58.1,14.8,29.93,WNW,296,6.0,22.0,18,0.00,,FEW070,0.00,195.00,VWS V14.01,2014-01-10 22:38:00,
2014-01-10 15:43:00,58.1,14.8,29.93,NNW,327,19.0,19.0,18,0.00,,FEW070,0.00,181.00,VWS V14.01,2014-01-10 22:43:00,
2014-01-10 15:48:00,57.9,14.7,29.92,WNW,294,8.0,22.0,18,0.00,,FEW070,0.00,132.00,VWS V14.01,2014-01-10 22:48:00,
2014-01-10 15:54:00,57.7,14.5,29.92,WNW,292,10.0,19.0,18,0.00,,FEW070,0.00,86.00,VWS V14.01,2014-01-10 22:54:00,
2014-01-10 15:59:00,57.4,14.3,29.92,WNW,293,9.0,17.0,18,0.00,,FEW070,0.00,49.00,VWS V14.01,2014-01-10 22:59:00,
2014-01-10 16:04:00,57.0,13.9,29.91,West,276,6.0,18.0,18,0.00,,FEW100,0.00,46.00,VWS V14.01,2014-01-10 23:04:00,
2014-01-10 16:09:00,57.0,13.9,29.91,NW,306,9.0,18.0,18,0.00,,FEW100,0.00,42.00,VWS V14.01,2014-01-10 23:09:00,
2014-01-10 16:14:00,56.2,14.5,29.91,NW,308,26.0,26.0,19,0.00,,FEW100,0.00,37.00,VWS V14.01,2014-01-10 23:14:00,
2014-01-10 16:19:00,55.9,14.3,29.90,WNW,296,9.0,26.0,19,0.00,,FEW100,0.00,32.00,VWS V14.01,2014-01-10 23:19:00,
2014-01-10 16:24:00,55.6,12.8,29.90,NW,308,12.0,34.0,18,0.00,,FEW100,0.00,25.00,VWS V14.01,2014-01-10 23:24:00,
2014-01-10 16:29:00,55.1,12.4,29.90,WSW,257,16.0,31.0,18,0.00,,FEW100,0.00,26.00,VWS V14.01,2014-01-10 23:29:00,
2014-01-10 16:34:00,54.7,12.1,29.90,WNW,289,21.0,39.0,18,0.00,,FEW100,0.00,26.00,VWS V14.01,2014-01-10 23:34:00,
2014-01-10 16:39:00,54.2,12.9,29.89,WNW,288,17.0,31.0,19,0.00,,FEW100,0.00,23.00,VWS V14.01,2014-01-10 23:39:00,
2014-01-10 16:44:00,53.7,13.6,29.89,WNW,285,15.0,29.0,20,0.00,,FEW100,0.00,23.00,VWS V14.01,2014-01-10 23:44:00,
2014-01-10 16:49:00,53.4,13.4,29.89,West,273,17.0,27.0,20,0.00,,FEW100,0.00,18.00,VWS V14.01,2014-01-10 23:49:00,
2014-01-10 16:54:00,53.0,14.1,29.89,West,260,16.0,30.0,21,0.00,,FEW100,0.00,14.00,VWS V14.01,2014-01-10 23:54:00,
2014-01-10 16:59:00,52.7,13.9,29.89,WNW,292,6.0,26.0,21,0.00,,FEW100,0.00,11.00,VWS V14.01,2014-01-10 23:59:00,
2014-01-10 17:04:00,52.3,13.5,29.90,West,275,22.0,28.0,21,0.00,,FEW120,0.00,9.00,VWS V14.01,2014-01-11 00:04:00,
2014-01-10 17:09:00,52.3,14.6,29.90,West,273,18.0,28.0,22,0.00,,FEW120,0.00,9.00,VWS V14.01,2014-01-11 00:09:00,
2014-01-10 17:14:00,51.6,14.0,29.90,WNW,291,17.0,17.0,22,0.00,,FEW120,0.00,5.00,VWS V14.01,2014-01-11 00:14:00,
2014-01-10 17:19:00,51.4,13.9,29.90,West,277,11.0,32.0,22,0.00,,FEW120,0.00,0.00,VWS V14.01,2014-01-11 00:19:00,
2014-01-10 17:24:00,51.0,13.5,29.91,NW,319,19.0,30.0,22,0.00,,FEW120,0.00,0.00,VWS V14.01,2014-01-11 00:24:00,
2014-01-10 17:29:00,50.6,14.2,29.91,WNW,288,15.0,30.0,23,0.00,,FEW120,0.00,0.00,VWS V14.01,2014-01-11 00:29:00,
2014-01-10 17:34:00,50.3,13.9,29.91,West,280,12.0,12.0,23,0.00,,FEW120,0.00,0.00,VWS V14.01,2014-01-11 00:34:00,
2014-01-10 17:39:00,50.0,13.7,29.92,West,279,21.0,23.0,23,0.00,,FEW120,0.00,0.00,VWS V14.01,2014-01-11 00:39:00,
2014-01-10 17:44:00,49.7,14.4,29.93,WNW,288,8.0,12.0,24,0.00,,FEW120,0.00,0.00,VWS V14.01,2014-01-11 00:44:00,
2014-01-10 17:49:00,49.4,14.1,29.93,WNW,293,12.0,13.0,24,0.00,,FEW120,0.00,0.00,VWS V14.01,2014-01-11 00:49:00,
2014-01-10 17:54:00,49.1,14.8,29.94,NW,313,22.0,22.0,25,0.00,,FEW120,0.00,0.00,VWS V14.01,2014-01-11 00:54:00,
2014-01-10 17:59:00,48.8,14.6,29.95,WNW,302,7.0,14.0,25,0.00,,FEW120,0.00,0.00,VWS V14.01,2014-01-11 00:59:00,
2014-01-10 18:04:00,48.6,14.4,29.96,West,272,3.0,14.0,25,0.00,,FEW250,0.00,0.00,VWS V14.01,2014-01-11 01:04:00,
2014-01-10 18:09:00,48.3,15.0,29.97,NNE,22,5.0,5.0,26,0.00,,FEW250,0.00,0.00,VWS V14.01,2014-01-11 01:09:00,
2014-01-10 18:14:00,48.1,14.9,29.98,WNW,297,0.0,1.0,26,0.00,,FEW250,0.00,0.00,VWS V14.01,2014-01-11 01:14:00,
2014-01-10 18:19:00,47.8,14.6,29.98,North,360,1.0,2.0,26,0.00,,FEW250,0.00,0.00,VWS V14.01,2014-01-11 01:19:00,
2014-01-10 18:25:00,47.6,15.3,29.98,North,360,0.0,0.0,27,0.00,,FEW250,0.00,0.00,VWS V14.01,2014-01-11 01:25:00,
2014-01-10 18:30:00,47.4,15.1,29.99,North,360,0.0,0.0,27,0.00,,FEW250,0.00,0.00,VWS V14.01,2014-01-11 01:30:00,
2014-01-10 18:35:00,47.1,14.9,29.99,North,360,1.0,4.0,27,0.00,,FEW250,0.00,0.00,VWS V14.01,2014-01-11 01:35:00,
2014-01-10 18:40:00,47.0,14.8,30.00,North,360,1.0,1.0,27,0.00,,FEW250,0.00,0.00,VWS V14.01,2014-01-11 01:40:00,
2014-01-10 18:45:00,46.8,14.6,30.00,SSE,155,0.0,0.0,27,0.00,,FEW250,0.00,0.00,VWS V14.01,2014-01-11 01:45:00,
2014-01-10 18:50:00,46.6,14.4,30.01,SSE,155,0.0,0.0,27,0.00,,FEW250,0.00,0.00,VWS V14.01,2014-01-11 01:50:00,
2014-01-10 18:55:00,46.5,15.2,30.01,SSE,155,0.0,0.0,28,0.00,,FEW250,0.00,0.00,VWS V14.01,2014-01-11 01:55:00,
2014-01-10 19:00:00,46.3,15.0,30.01,SSE,155,0.0,0.0,28,0.00,,CLR,0.00,0.00,VWS V14.01,2014-01-11 02:00:00,
2014-01-10 19:05:00,46.2,14.9,30.02,SSE,155,0.0,0.0,28,0.00,,CLR,0.00,0.00,VWS V14.01,2014-01-11 02:05:00,
2014-01-10 19:10:00,45.9,15.4,30.02,SSE,155,0.0,0.0,29,0.00,,CLR,0.00,0.00,VWS V14.01,2014-01-11 02:10:00,
2014-01-10 19:15:00,45.6,15.2,30.02,SSE,155,0.0,0.0,29,0.00,,CLR,0.00,0.00,VWS V14.01,2014-01-11 02:15:00,
2014-01-10 19:20:00,45.2,15.6,30.03,SSE,155,0.0,0.0,30,0.00,,CLR,0.00,0.00,VWS V14.01,2014-01-11 02:20:00,
2014-01-10 19:25:00,45.1,15.5,30.04,SSE,155,0.0,2.0,30,0.00,,CLR,0.00,0.00,VWS V14.01,2014-01-11 02:25:00,
2014-01-10 19:30:00,44.7,15.2,30.04,SSE,155,0.0,0.0,30,0.00,,CLR,0.00,0.00,VWS V14.01,2014-01-11 02:30:00,
2014-01-10 19:35:00,44.3,15.6,30.04,West,275,3.0,4.0,31,0.00,,CLR,0.00,0.00,VWS V14.01,2014-01-11 02:35:00,
2014-01-10 19:40:00,43.9,16.0,30.04,East,90,1.0,5.0,32,0.00,,CLR,0.00,0.00,VWS V14.01,2014-01-11 02:40:00,
2014-01-10 19:45:00,43.7,15.8,30.05,ENE,75,0.0,0.0,32,0.00,,CLR,0.00,0.00,VWS V14.01,2014-01-11 02:45:00,
2014-01-10 19:51:00,43.5,15.6,30.05,NE,50,0.0,4.0,32,0.00,,CLR,0.00,0.00,VWS V14.01,2014-01-11 02:51:00,
2014-01-10 19:56:00,43.7,16.5,30.05,ESE,107,4.0,7.0,33,0.00,,CLR,0.00,0.00,VWS V14.01,2014-01-11 02:56:00,
2014-01-10 20:01:00,44.3,15.6,30.05,NE,42,2.0,8.0,31,0.00,,CLR,0.00,0.00,VWS V14.01,2014-01-11 03:01:00,
2014-01-10 20:06:00,44.5,15.8,30.07,NE,42,0.0,8.0,31,0.00,,CLR,0.00,0.00,VWS V14.01,2014-01-11 03:06:00,
2014-01-10 20:11:00,44.5,15.8,30.08,South,175,4.0,8.0,31,0.00,,CLR,0.00,0.00,VWS V14.01,2014-01-11 03:11:00,
2014-01-10 20:16:00,44.6,15.9,30.08,NW,310,1.0,6.0,31,0.00,,CLR,0.00,0.00,VWS V14.01,2014-01-11 03:16:00,
2014-01-10 20:21:00,44.6,15.9,30.08,NW,306,2.0,3.0,31,0.00,,CLR,0.00,0.00,VWS V14.01,2014-01-11 03:21:00,
2014-01-10 20:26:00,44.6,15.9,30.08,WNW,285,3.0,5.0,31,0.00,,CLR,0.00,0.00,VWS V14.01,2014-01-11 03:26:00,
2014-01-10 20:31:00,44.5,15.8,30.08,NW,325,6.0,6.0,31,0.00,,CLR,0.00,0.00,VWS V14.01,2014-01-11 03:31:00,
2014-01-10 20:36:00,44.4,15.7,30.08,WNW,289,7.0,9.0,31,0.00,,CLR,0.00,0.00,VWS V14.01,2014-01-11 03:36:00,
2014-01-10 20:42:00,44.3,15.6,30.08,WNW,288,7.0,8.0,31,0.00,,CLR,0.00,0.00,VWS V14.01,2014-01-11 03:42:00,
2014-01-10 20:47:00,44.2,15.5,30.08,WNW,298,1.0,8.0,31,0.00,,CLR,0.00,0.00,VWS V14.01,2014-01-11 03:47:00,
2014-01-10 20:52:00,44.2,15.5,30.08,NW,304,5.0,8.0,31,0.00,,CLR,0.00,0.00,VWS V14.01,2014-01-11 03:52:00,
2014-01-10 20:57:00,44.3,15.6,30.09,NNW,336,7.0,11.0,31,0.00,,CLR,0.00,0.00,VWS V14.01,2014-01-11 03:57:00,
2014-01-10 21:02:00,44.4,15.7,30.09,WNW,300,11.0,15.0,31,0.00,,CLR,0.00,0.00,VWS V14.01,2014-01-11 04:02:00,
2014-01-10 21:07:00,44.5,15.8,30.09,West,277,5.0,5.0,31,0.00,,CLR,0.00,0.00,VWS V14.01,2014-01-11 04:07:00,
2014-01-10 21:12:00,44.7,15.9,30.09,NW,323,4.0,14.0,31,0.00,,CLR,0.00,0.00,VWS V14.01,2014-01-11 04:12:00,
2014-01-10 21:17:00,44.7,15.9,30.10,NW,307,5.0,8.0,31,0.00,,CLR,0.00,0.00,VWS V14.01,2014-01-11 04:17:00,
2014-01-10 21:22:00,44.5,15.8,30.10,WNW,291,1.0,6.0,31,0.00,,CLR,0.00,0.00,VWS V14.01,2014-01-11 04:22:00,
2014-01-10 21:27:00,44.3,16.3,30.11,WNW,290,0.0,2.0,32,0.00,,CLR,0.00,0.00,VWS V14.01,2014-01-11 04:27:00,
2014-01-10 21:32:00,44.1,16.1,30.12,WNW,290,0.0,3.0,32,0.00,,CLR,0.00,0.00,VWS V14.01,2014-01-11 04:32:00,
2014-01-10 21:37:00,43.9,16.7,30.12,WNW,290,0.0,0.0,33,0.00,,CLR,0.00,0.00,VWS V14.01,2014-01-11 04:37:00,
2014-01-10 21:42:00,43.6,15.7,30.12,WNW,290,0.0,2.0,32,0.00,,CLR,0.00,0.00,VWS V14.01,2014-01-11 04:42:00,
2014-01-10 21:48:00,43.4,15.5,30.12,WNW,290,0.0,2.0,32,0.00,,CLR,0.00,0.00,VWS V14.01,2014-01-11 04:48:00,
2014-01-10 21:53:00,43.2,15.4,30.13,WNW,290,0.0,0.0,32,0.00,,CLR,0.00,0.00,VWS V14.01,2014-01-11 04:53:00,
2014-01-10 21:58:00,42.8,15.7,30.13,WNW,290,0.0,0.0,33,0.00,,CLR,0.00,0.00,VWS V14.01,2014-01-11 04:58:00,
2014-01-10 22:01:00,42.6,15.5,30.13,WNW,290,0.0,0.0,33,0.00,,FEW070,0.00,0.00,VWS V14.01,2014-01-11 05:01:00,
2014-01-10 22:02:00,42.6,15.5,30.13,WNW,290,0.0,0.0,33,0.00,,FEW070,0.00,0.00,VWS V14.01,2014-01-11 05:02:00,
2014-01-10 22:04:00,42.4,15.4,30.13,WNW,290,0.0,0.0,33,0.00,,FEW070,0.00,0.00,VWS V14.01,2014-01-11 05:04:00,
2014-01-10 22:09:00,42.1,15.8,30.13,WNW,290,0.0,0.0,34,0.00,,FEW070,0.00,0.00,VWS V14.01,2014-01-11 05:09:00,
2014-01-10 22:14:00,41.6,15.3,30.12,WNW,290,0.0,0.0,34,0.00,,FEW070,0.00,0.00,VWS V14.01,2014-01-11 05:14:00,
2014-01-10 22:19:00,41.1,15.6,30.12,WNW,290,0.0,0.0,35,0.00,,FEW070,0.00,0.00,VWS V14.01,2014-01-11 05:19:00,
2014-01-10 22:24:00,40.5,15.7,30.12,WNW,290,0.0,0.0,36,0.00,,FEW070,0.00,0.00,VWS V14.01,2014-01-11 05:24:00,
2014-01-10 22:29:00,40.0,15.2,30.12,WNW,290,0.0,0.0,36,0.00,,FEW070,0.00,0.00,VWS V14.01,2014-01-11 05:29:00,
2014-01-10 22:34:00,39.6,15.5,30.12,WNW,290,0.0,3.0,37,0.00,,FEW070,0.00,0.00,VWS V14.01,2014-01-11 05:34:00,
2014-01-10 22:40:00,39.2,15.1,30.12,WNW,290,0.0,2.0,37,0.00,,FEW070,0.00,0.00,VWS V14.01,2014-01-11 05:40:00,
2014-01-10 22:46:00,38.6,15.2,30.12,WNW,290,0.0,3.0,38,0.00,,FEW070,0.00,0.00,VWS V14.01,2014-01-11 05:46:00,
2014-01-10 22:51:00,38.3,15.5,30.12,WNW,290,0.0,0.0,39,0.00,,FEW070,0.00,0.00,VWS V14.01,2014-01-11 05:51:00,
2014-01-10 22:56:00,37.9,15.8,30.12,WNW,290,0.0,1.0,40,0.00,,FEW070,0.00,0.00,VWS V14.01,2014-01-11 05:56:00,
2014-01-10 23:01:00,37.5,15.4,30.13,WNW,290,0.0,0.0,40,0.00,,FEW070,0.00,0.00,VWS V14.01,2014-01-11 06:01:00,
2014-01-10 23:06:00,37.3,15.2,30.13,WNW,290,0.0,0.0,40,0.00,,FEW070,0.00,0.00,VWS V14.01,2014-01-11 06:06:00,
2014-01-10 23:11:00,36.9,15.4,30.13,WNW,290,0.0,3.0,41,0.00,,FEW070,0.00,0.00,VWS V14.01,2014-01-11 06:11:00,
2014-01-10 23:16:00,36.7,15.2,30.14,WNW,290,0.0,2.0,41,0.00,,FEW070,0.00,0.00,VWS V14.01,2014-01-11 06:16:00,
2014-01-10 23:21:00,36.6,15.1,30.14,WNW,290,2.0,2.0,41,0.00,,FEW070,0.00,0.00,VWS V14.01,2014-01-11 06:21:00,
2014-01-10 23:26:00,36.4,15.0,30.14,WNW,290,2.0,3.0,41,0.00,,FEW070,0.00,0.00,VWS V14.01,2014-01-11 06:26:00,
2014-01-10 23:31:00,36.4,15.0,30.13,WNW,290,2.0,3.0,41,0.00,,FEW070,0.00,0.00,VWS V14.01,2014-01-11 06:31:00,
2014-01-10 23:36:00,36.2,15.3,30.13,WNW,290,2.0,3.0,42,0.00,,FEW070,0.00,0.00,VWS V14.01,2014-01-11 06:36:00,
2014-01-10 23:41:00,36.0,15.1,30.14,WNW,290,4.0,4.0,42,0.00,,FEW070,0.00,0.00,VWS V14.01,2014-01-11 06:41:00,
2014-01-10 23:46:00,35.8,15.0,30.14,WNW,290,2.0,4.0,42,0.00,,FEW070,0.00,0.00,VWS V14.01,2014-01-11 06:46:00,
2014-01-10 23:52:00,35.6,14.8,30.14,WNW,290,0.0,3.0,42,0.00,,FEW070,0.00,0.00,VWS V14.01,2014-01-11 06:52:00,
2014-01-10 23:57:00,35.5,15.2,30.15,WNW,290,0.0,0.0,43,0.00,,FEW070,0.00,0.00,VWS V14.01,2014-01-11 06:57:00,